This is the latest recevied weather packets stored in our database for station/object KC5DAQ-28. If no packets are shown the sender has not sent any weather packets the latest 10 day(s).
| Time | Temp. | Humidity | Pressure | Rain* | Wind** | Luminosity | Snow |
|---|---|---|---|---|---|---|---|
| 1788642377 | 31.67° C | 69% | 1005.9 hPa | 0 mm | - | 183 W/m² | - |
| 1788642316 | 31.67° C | 70% | 1005.9 hPa | 0 mm | - | 183 W/m² | - |
| 1788642257 | 32.22° C | 69% | 1005.8 hPa | 0 mm | - | 183 W/m² | - |
| 1788642196 | 32.22° C | 69% | 1005.8 hPa | 0 mm | - | 183 W/m² | - |
| 1788642129 | 32.22° C | 68% | 1005.7 hPa | 0 mm | - | 183 W/m² | - |
| 1788642064 | 32.22° C | 68% | 1005.8 hPa | 0 mm | - | 183 W/m² | - |
| 1788642003 | 32.22° C | 68% | 1005.7 hPa | 0 mm | - | 178 W/m² | - |
| 1788641944 | 32.22° C | 68% | 1005.5 hPa | 0 mm | - | 178 W/m² | - |
| 1788641885 | 32.22° C | 68% | 1005.5 hPa | 0 mm | - | 178 W/m² | - |
| 1788641823 | 32.22° C | 67% | 1005.4 hPa | 0 mm | - | 178 W/m² | - |
| 1788641764 | 32.22° C | 67% | 1005.4 hPa | 0 mm | - | 183 W/m² | - |
| 1788641704 | 32.22° C | 67% | 1005.4 hPa | 0 mm | - | 192 W/m² | - |
| 1788641642 | 32.22° C | 66% | 1005.3 hPa | 0 mm | - | 206 W/m² | - |
| 1788641584 | 32.22° C | 66% | 1005.3 hPa | 0 mm | - | 218 W/m² | - |
| 1788641524 | 32.22° C | 66% | 1005.3 hPa | 0 mm | - | 218 W/m² | - |
| 1788641463 | 32.22° C | 66% | 1005.3 hPa | 0 mm | - | 218 W/m² | - |
| 1788641403 | 32.22° C | 66% | 1005.3 hPa | 0 mm | - | 218 W/m² | - |
| 1788641343 | 32.78° C | 67% | 1005.3 hPa | 0 mm | - | 220 W/m² | - |
| 1788641284 | 32.78° C | 66% | 1005.3 hPa | 0 mm | - | 229 W/m² | - |
| 1788641225 | 32.78° C | 66% | 1005.3 hPa | 0 mm | - | 318 W/m² | - |
| 1788641164 | 32.78° C | 66% | 1005.4 hPa | 0 mm | - | 318 W/m² | - |
| 1788641105 | 32.78° C | 67% | 1005.3 hPa | 0 mm | - | 339 W/m² | - |
| 1788641044 | 32.78° C | 68% | 1005.3 hPa | 0 mm | - | 339 W/m² | - |
| 1788640983 | 32.78° C | 67% | 1005.4 hPa | 0 mm | - | 331 W/m² | - |
| 1788640924 | 32.78° C | 67% | 1005.3 hPa | 0 mm | - | 331 W/m² | - |
* Rain latest hour (hover to see other rain measurements)
** Current wind speed in m/s (hover to see current wind gust speed)